Location: ??????
(41.2651°N, 22.6498°E)
Time: 18:32:40
(UTC+00:00)

Daily predictions for brighter satellites

Satellite Brightness Start Highest point End
(mag) Time Altitude Azimuth Time Altitude Azimuth Time Altitude Azimuth
Cosmos 1315 Rocket 3.3 17:25:20 10° SSE 17:29:10 41° E 17:33:00 10° NNE
NOSS 2-2 (C) 4.3 17:27:13 10° SW 17:30:33 45° NW 17:34:04 10° NNE
BREEZE-M DEB (TANK) 3.9 17:24:08 10° WSW 17:31:59 80° SSE 17:36:20 10° ENE
PSLV R/B 4.2 17:28:12 10° N 17:32:18 77° WNW 17:36:25 10° SSW
Cosmos 1544 Rocket 3.7 17:30:19 10° S 17:34:38 56° E 17:38:56 10° NNE
Tsikada Rocket 4.2 17:29:36 10° N 17:36:03 89° W 17:42:24 10° S
DMSP B5D2-2 4.2 17:32:12 10° NNE 17:37:19 53° E 17:42:26 10° S
Cosmos 1048 Rocket 4.5 17:33:14 10° SSE 17:38:02 38° ESE 17:42:55 10° NE
Cosmos 2360 Rocket 4.1 17:35:36 10° NNE 17:38:15 13° NE 17:40:54 10° ENE
Cosmos 1340 4.3 17:34:53 10° NNW 17:38:23 37° W 17:41:51 10° SSW
Cosmos 1624 Rocket 4.5 17:33:40 10° NNW 17:38:58 68° WSW 17:44:15 10° S
Cosmos 1626 Rocket 4.2 17:35:00 10° N 17:39:03 36° ENE 17:43:07 10° SE
SL-08 RB Rocket 3.8 17:36:01 10° SSE 17:40:41 84° ENE 17:45:21 10° N
CZ-4C R/B 3.1 17:39:50 10° SSE 17:43:08 19° ESE 17:46:47 10° ENE
Cosmos 1420 Rocket 4.0 17:38:11 10° NNW 17:43:24 82° ENE 17:48:35 10° SSE
Cosmos 1300 4.1 17:40:56 10° SE 17:43:42 20° E 17:46:30 10° NE
SL-16 R/B 3.2 17:39:33 10° N 17:44:27 29° NE 17:49:06 11° ESE
CSL-04 Rocket 3.6 17:39:35 10° SSE 17:44:55 83° ENE 17:50:14 10° NNW
Resurs 01 Rocket 3.6 17:43:58 10° E 17:45:50 13° ENE 17:47:44 10° NE
ARGOS 3.7 17:43:01 10° S 17:48:21 62° WSW 17:53:42 10° NNW
Cosmos 1455 Rocket 3.8 17:45:14 10° SSW 17:49:38 60° W 17:54:02 10° N
USA 215 3.8 17:45:41 10° ESE 17:51:53 48° NNE 17:58:06 10° NW
Cosmos 2056 Rocket 4.4 17:47:41 10° NNW 17:52:37 50° WSW 17:57:34 10° S
Cosmos 1452 Rocket 3.7 17:48:08 10° N 17:53:20 54° ENE 17:58:30 10° SE
CZ-2C R/B 3.5 17:53:24 10° SW 17:54:19 11° SSW 17:55:13 10° SSW
Cosmos 1464 Rocket 4.4 17:50:40 10° SSE 17:56:34 42° E 18:02:26 10° NNE
Cosmos 1980 Rocket 2.5 17:51:03 10° NNW 17:56:41 69° WSW 18:02:15 10° SSE
SME Rocket 2.8 17:53:56 10° NNE 17:57:41 81° ESE 18:01:58 10° SSW
CENTAUR R/B 3.8 17:50:58 10° NNW 17:58:30 41° NE 18:05:32 14° ESE
OBJECT-B 1.4 17:56:31 12° SE 17:59:07 36° ENE 18:02:06 10° N
Cosmos 1697 Rocket 4.4 17:54:36 10° NW 17:59:32 33° WSW 18:04:28 10° SSW
OAO 2 Rocket 4.2 17:55:04 10° WSW 17:59:43 37° S 18:03:32 15° SE
SAR-Lupe-4 4.4 17:57:02 10° N 18:00:33 55° WNW 18:04:03 10° SSW
Lacrosse 5 4.1 17:58:50 10° WNW 18:02:39 22° WSW 18:06:26 10° S
CZ-2C R/B 3.5 17:59:02 10° N 18:04:04 53° WNW 18:09:05 10° SSW
BREEZE-M DEB (TANK) 4.3 18:01:37 10° WNW 18:04:11 19° NNW 18:06:01 10° NE
MetOp-A 4.1 17:58:53 10° SSE 18:04:13 75° ENE 18:09:35 10° N
Cosmos 1184 Rocket 4.1 18:01:45 10° NNE 18:04:17 21° ENE 18:05:06 19° E
Helios 1A Rocket 3.5 18:02:17 10° S 18:06:16 60° WSW 18:10:18 10° NNW
CZ-4 R/B 4.3 18:11:23 10° SW 18:14:20 19° W 18:17:18 10° NW
BREEZE M DEB (TANK) 4.2 18:00:27 10° SW 18:16:20 49° SSE 18:20:10 15° ENE
Resurs 1-3 4.1 18:13:48 19° SE 18:16:31 40° ENE 18:20:37 10° N
MOS 1 4.4 18:11:26 12° SSE 18:16:37 56° ENE 18:22:08 10° N
Cosmos 2333 Rocket 4.2 18:14:32 10° NNE 18:17:08 13° NE 18:19:41 10° ENE
Cosmos 1513 Rocket 4.5 18:13:32 10° S 18:19:43 70° E 18:26:03 10° NNE
ATLAS 5 CENTAUR R/B 1.2 18:24:36 10° SSW 18:28:27 70° ESE 18:32:44 10° NE
Atlas Centaur 2 3.7 18:21:43 10° WSW 18:29:26 39° S 18:33:47 23° SE
Ariane Rocket 2.9 18:25:23 16° SSE 18:29:27 70° ENE 18:34:29 10° N
Cosmos 220 Rocket 4.1 18:26:28 10° NNW 18:30:55 80° WSW 18:34:04 19° SSE
NOSS 3-4 (A) 3.8 18:25:57 10° S 18:31:04 34° ESE 18:36:27 10° NE
NOSS 3-4 (C) 3.8 18:26:01 10° S 18:31:10 34° ESE 18:36:32 10° NE
IGS 5A 4.4 18:34:28 28° E 18:35:00 29° ENE 18:38:36 10° N
Cosmos 1328 4.3 18:31:16 10° NNW 18:35:15 60° W 18:39:11 10° S
Cosmos 2228 3.1 18:32:31 19° SSE 18:35:27 52° E 18:39:42 10° NNE
Cosmos 494 Rocket 4.0 18:31:05 10° SSW 18:36:19 87° WNW 18:41:37 10° NNE
ATLAS 5 CENTAUR R/B 3.2 18:35:23 10° NNE 18:35:37 11° NNE 18:35:37 11° NNE
Cosmos 2322 Rocket 2.4 18:30:51 10° NNW 18:36:29 56° ENE 18:39:16 29° SE
SL-27 R/B 2.7 18:37:02 45° ESE 18:37:09 45° ESE 18:40:32 10° NNE
NOSS 3-2 (C) 4.3 18:30:40 10° NNW 18:38:07 55° NE 18:43:00 26° ESE
BREEZE M DEB (TANK) 4.4 18:10:17 10° WNW 18:38:11 82° NNE 18:41:52 28° ESE
Lacrosse 5 rocket 1.2 18:36:44 10° SW 18:40:39 67° SE 18:44:51 10° NE
ARIANE 5 R/B 4.4 18:42:19 17° ENE 18:42:19 17° ENE 18:45:03 10° NNE
ATLAS 2AS CENTAUR R/B 3.5 18:37:50 10° S 18:44:44 35° ESE 18:51:37 10° NE
Cosmos 1825 Rocket 3.6 18:40:43 10° N 18:44:59 54° E 18:46:06 42° SE
BREEZE-M DEB (TANK) 4.1 18:42:03 10° WNW 18:45:21 85° NNE 18:48:51 30° ESE
Cosmos 1441 Rocket 3.2 18:45:23 10° N 18:49:18 85° W 18:50:45 38° S
Cosmos 1758 Rocket 3.5 18:45:12 10° N 18:49:39 89° ESE 18:51:47 31° S
SJ-6B 4.0 18:48:17 12° SSW 18:51:26 38° W 18:54:56 10° NNW
USA 186 4.3 18:48:51 10° SSW 18:51:27 22° W 18:54:05 10° NW
Cosmos 1892 3.6 18:49:39 10° N 18:52:30 33° NE 18:52:30 33° NE
Cosmos 1110 Rocket 3.9 18:50:49 10° NNW 18:56:02 87° WSW 18:58:16 35° SSE
COSMOS 2428 4.4 18:52:29 10° N 18:56:17 18° NE 18:57:26 17° ENE
USA 276 3.6 18:55:35 10° WNW 18:58:15 28° SW 18:58:15 28° SW
Terra 4.0 19:01:29 13° NE 19:01:29 13° NE 19:02:57 10° NE
Lacrosse 4 Rocket 3.0 18:57:42 10° NW 19:01:32 31° WSW 19:03:47 19° SSW
Cosmos 1408 4.1 18:59:44 10° N 19:01:40 25° NE 19:01:40 25° NE
BREEZE-M DEB (TANK) 3.2 18:59:08 10° SW 19:03:22 37° SSW 19:03:22 37° SSW
Cosmos 1833 4.1 19:01:06 13° S 19:06:00 61° ESE 19:11:33 10° NNE
SPOT 1/Viking Rocket 3.9 19:06:45 43° E 19:07:15 44° ENE 19:12:12 10° N
Cosmos 1331 Rocket 4.0 19:02:41 10° NNW 19:07:52 77° WSW 19:09:43 41° S
BREEZE-M DEB (TANK) 4.0 19:07:00 10° W 19:10:47 61° NNW 19:23:45 10° ENE
SPOT 3 Rocket 3.4 19:09:19 47° SSE 19:10:54 85° ENE 19:16:08 10° NNW
Haruka 4.4 19:00:07 10° W 19:15:52 40° SSW 19:17:30 35° SSE
USA 238 DEB 3.9 19:09:26 10° NW 19:16:46 79° WSW 19:19:55 39° SSE
USA 238 3.9 19:09:32 10° NW 19:16:52 80° WSW 19:20:00 39° SSE
Cosmos 1092 Rocket 3.9 19:11:23 10° N 19:17:41 71° E 19:19:19 50° SE
MetOp-B 4.0 19:18:00 59° SE 19:18:56 74° ENE 19:24:18 10° N
Cosmos 2237 4.1 19:14:31 10° NNW 19:20:15 87° ENE 19:21:27 58° SSE
Cosmos 1606 Rocket 4.1 19:18:55 26° SSW 19:21:11 55° W 19:25:29 10° N
Resurs 01 Rocket 1.8 19:21:05 58° SSW 19:21:45 68° W 19:26:12 10° NNW
USA 245 4.0 19:23:00 57° ENE 19:23:00 57° ENE 19:27:04 10° N
Cosmos 2360 Rocket 2.1 19:17:34 10° NNW 19:23:16 76° ENE 19:24:03 64° SE
NOSS 3-2 (A) 4.4 19:16:50 10° NW 19:24:28 61° WSW 19:28:45 31° S
SL-16 R/B 3.1 19:23:21 10° NW 19:28:41 43° WSW 19:30:59 29° SSW
Cosmos 1825 4.0 19:25:05 10° N 19:26:44 23° NNE 19:26:44 23° NNE
CZ-4C R/B 2.7 19:26:09 10° SW 19:30:53 54° NW 19:36:34 10° NNE
Landsat 7 3.8 19:32:37 72° SW 19:32:51 74° WSW 19:37:38 10° NNW
Meteor 2-10 Rocket 3.7 19:31:14 41° SSW 19:32:59 69° WNW 19:38:13 10° N
USA 215 3.5 19:32:57 43° S 19:34:47 57° SW 19:41:13 10° NW
Cosmos 1726 Rocket 4.3 19:33:57 41° WSW 19:34:59 50° W 19:39:16 10° N
ERS-1 Rocket 3.9 19:36:16 36° NE 19:36:16 36° NE 19:39:58 10° N
Meteor 2-1 Rocket 4.4 19:37:58 60° ENE 19:37:58 60° ENE 19:43:11 10° NNE
Cosmos 2098 Rocket 4.2 19:32:28 10° N 19:39:01 82° W 19:41:26 46° S
Cosmos 2058 Rocket 3.6 19:40:27 53° NNW 19:40:27 53° NNW 19:43:53 10° N
Spot 2 Rocket 3.6 19:40:34 65° NE 19:40:34 65° NE 19:45:10 10° N
Cosmos 2219 Rocket 2.8 19:39:53 10° NNW 19:44:52 44° NE 19:44:52 44° NE
ATLAS 3B R/B 3.7 19:41:32 10° NNW 19:47:53 35° NE 19:49:09 33° ENE
SPOT 5 4.1 19:51:05 30° NNE 19:51:05 30° NNE 19:53:37 10° N
CENTAUR R/B 3.5 19:41:32 10° NW 19:49:44 62° WSW 19:52:44 43° S
Cosmos 2344 3.3 19:48:25 10° SSW 19:56:01 76° ESE 20:03:41 10° NE
Cosmos 2279 Rocket 4.0 19:58:00 69° NE 19:58:00 69° NE 20:03:35 10° N
Cosmos 1455 4.4 20:00:06 23° NNW 20:00:06 23° NNW 20:01:42 10° N
Cosmos 2237 Rocket 4.0 19:55:18 10° N 19:58:47 20° NE 19:58:47 20° NE
Cosmos 2333 Rocket 2.5 19:56:42 10° NNW 20:01:44 63° NNE 20:01:44 63° NNE
Cosmos 2142 Rocket 4.5 20:09:19 80° W 20:09:19 80° W 20:15:41 10° N
Cosmos 2026 Rocket 4.3 20:05:43 10° NNW 20:11:38 56° W 20:12:06 54° WSW
ATLAS 5 CENTAUR R/B 4.4 20:11:08 10° WNW 20:13:40 16° NW 20:16:23 10° N
ARIANE 5 R/B 4.3 20:19:51 32° NW 20:19:51 32° NW 20:22:32 10° NNW
Atlas Centaur 2 4.1 20:11:15 10° WSW 20:16:22 28° SW 20:16:22 28° SW
Cosmos 2322 Rocket 4.1 20:15:56 10° NW 20:20:03 21° W 20:21:07 20° WSW
Lacrosse 5 rocket 3.7 20:16:55 10° W 20:20:12 22° NNW 20:20:53 21° NNW
Cosmos 2322 4.2 20:15:53 10° NNW 20:20:22 56° NW 20:20:22 56° NW
NOSS 3-4 (A) 4.5 20:16:19 10° WSW 20:21:46 41° NW 20:27:38 10° NNE
NOSS 3-4 (C) 4.5 20:16:21 10° WSW 20:21:51 41° NW 20:27:45 10° NNE
SeaSat 1 4.5 20:29:50 10° NNE 20:31:25 21° NNE 20:31:25 21° NNE
ATLAS 2AS CENTAUR R/B 3.4 20:27:37 10° SW 20:35:25 59° NW 20:43:08 10° NNE
Terra 3.6 20:40:21 29° NNW 20:40:21 29° NNW 20:42:43 10° NNW
COSMOS 2428 3.6 20:35:30 10° NNW 20:39:28 46° NNW 20:39:28 46° NNW
SL-16 R/B 4.3 20:43:27 10° N 20:46:10 17° NE 20:46:10 17° NE
Cosmos 2219 Rocket 4.3 21:24:22 10° NW 21:26:36 20° WNW 21:26:36 20° WNW
ATLAS 3B R/B 3.8 21:32:00 10° NW 21:36:24 39° WNW 21:36:24 39° WNW
Cosmos 2237 Rocket 4.1 21:38:21 10° NNW 21:40:36 25° NW 21:40:36 25° NW
Cosmos 2227 Rocket 4.3 22:00:49 22° NNE 22:00:49 22° NNE 22:02:50 10° NNE
Cosmos 2297 Rocket 4.2 22:09:15 23° N 22:09:15 23° N 22:11:38 10° N
SL-16 R/B 4.4 22:26:20 10° NNW 22:28:01 20° NNW 22:28:01 20° NNW
USA 234 4.1 23:26:01 10° NE 23:30:15 44° NE 23:30:15 44° NE
SL-16 R/B 3.6 23:38:12 41° NE 23:38:12 41° NE 23:42:55 10° N
CZ-2D R/B 3.8 23:43:41 10° NNE 23:46:37 31° NE 23:46:37 31° NE
Cosmos 2263 Rocket 3.9 23:56:34 27° N 23:56:34 27° N 23:59:23 10° N
